SENTINEL-1A

Last updated on Sun Aug 31 2025 00:02:30 GMT+0000 (Coordinated Universal Time)

1 39634U 14016A 25242.14475311 .00000254 00000+0 63533-4 0 9992 2 39634 98.1822 248.8987 0001368 89.6969 270.4388 14.59200351607575
UTC large
Height (km)
Speed (km/s)
/
Latitude / Longitude
Inclination (degrees)
Orbital Period (minutes)
Azimuth
Elevation
Range (km)
Doppler Factor

Next 0 passes for location: London (51.5072 / 0.1276)

Sorry there are no passes over London.